Погода в Невинномысске

Поиск расширенной информации на нашем сайте:

Полезная информация:

Новости сайта



02.01.2020
Опубликован Долгосрочный прогноз погоды по городам России и ближнего зарубежья на январь 2020 года.
Карты: Прогноз на январь и февраль 2020 года, Сравнение прогнозируемой аномалии приземной температуры воздуха на январь 2020 года по разным моделям.




Погода в Невинномысске - сегодня

Время (UTC), дата Ветер
(°,м/с) 
Видим.   Явления Облачность Т
(°С)
Тd
(°С)
f(%) Тe
(°С)
Pmin
(гПа)
dP
(гПа)
Po
(мм)
O2
(г/м3)
Тmin Tmax R s Состояние
почвы
12 18.10.20 290 (З) 20000 м    ясно 
+26.8 +1.8 20 +27  1012.7  -0.6  731  268           
15 18.10.20 тихо ()   20000 м    ясно 
+18.8 +3.6 36 +19  1014.3  -0.6  731  275    +27.1       
18 18.10.20 200 (Ю) 20000 м    ясно 
+13.9 +1.3 42 +14  1015.9  0.9  732  280           
21 18.10.20 190 (Ю) 20000 м    ясно 
+11.6 +1.7 51 +12  1015.9  0.9  732  283           
00 19.10.20 200 (Ю) 20000 м    ясно 
+12.2 +5.6 64 +13  1017.8  0.9  733  282           
03 19.10.20 тихо ()   20000 м    ясно 
+11.3 +6.1 70 +11  1018.2  0.9  733  283  +11.3        очень
сухая
с трещинами 
06 19.10.20 200 (Ю) 20000 м    ясно 
+15.4 +7.3 58 +17  1017.9  0.3  733  278  +10.8         
09 19.10.20 060 (СВ) 20000 м    10/0 верхняя 
[Ci fib]
+21.6 +8 42 +22  1015.1  0.3  732  272           
12 19.10.20 290 (З) 20000 м    10/3 600 м средняя 
[Sc diur, vesp|Ac und]
+21.9 +8.8 43 +22  1014.4  0.3  731  271           
15 19.10.20 230 (ЮЗ) 10 км  слаб. ливневой дождь  10/10 600 м кучево-дожд. 
[Cb cap]
+15.7 +14 90 +24  1016.1  0.8  732  276    +22.9     
18 19.10.20 260 (З) 2{11}  20000 м  в посл. час ливневой дождь  10/10 600 м кучево-дожд. 
[Cb calv]
+13.7 +11.5 87 +18  1020  3.4  735  280           
21 19.10.20 200 (Ю) 20000 м    3/0 средняя 
[Ac trans]
+12.3 +9.2 81 +14  1021  0.7  735  282           
00 20.10.20 240 (ЮЗ) 20000 м    10/10 600 м 
[Sc]
+11.7 +8.7 82 +12  1023.4  2.2  737  283           
03 20.10.20 280 (З) 20000 м    10/10 1000 м 
[Sc]
+9.5 +7.6 88 +11  1025.3  1.5  738  286  +9.5      влажная 
06 20.10.20 160 (Ю) 20000 м    10/10 1000 м 
[Sc]
+10.8 +6.9 77 +12  1025.9  0.7  739  285  +9.4         
09 20.10.20 270 (З) 20000 м    10/3 1000 м верхняя 
[Cu hum|Ci fib]
+14.6 +5.8 55 +16  1024.6  -0.8  738  281           
12 20.10.20 290 (З) 20000 м    10/6 1000 м верхняя 
[Cu hum|Ci fib]
+14.8 +5.4 53 +15  1024  -0.5  738  281           
15 20.10.20 320 (СЗ) 20000 м    10/10 1000 м 
[Sc diur, vesp]
+12.1 +7 71 +12  1025  0.5  738  284    +15.5       
18 20.10.20 280 (З) 20000 м    10/0 средняя 
[Ac trans]
+11.3 +4.2 62 +12  1026.3  1.1  739  285           
21 20.10.20 250 (З) 20000 м    10/0 средняя 
[Ac trans]
+9.9 +5.1 72 +11  1027.2  0.7  739  287           
00 21.10.20 300 (СЗ) 20000 м    10/0 средняя 
[Ac und]
+8.8 +4.6 75 +10  1028.1  0.7  740  288           
03 21.10.20 тихо ()   20000 м    10/0 средняя 
[Ac trans]
+8.4 +4.5 76 +8  1029.5  1.3  741  289  +8.1         
06 21.10.20 230 (ЮЗ) 20000 м    ясно 
+10.5 +4.5 66 +12  1030.1  0.8  742  287           
09 21.10.20 280 (З) 20000 м    5/5 1000 м 
[Cu med, cong]
+12.9 +3.4 52 +13  1029  -0.7  741  285           
12 21.10.20 200 (Ю) 20000 м    3/0 верхняя 
[Ci fib]
+14.5 +0.9 40 +15  1027.6  -1.1  740  283           
Время (UTC), дата Ветер
(°,м/с) 
Видим.   Явления Облачность Т
(°С)
Тd
(°С)
f(%) Тe
(°С)
Pmin
(гПа)
dP
(гПа)
Po
(мм)
O2
(г/м3)
Тmin Tmax R s Состояние
почвы

Для получения пояснительной информации подведите курсор к названию столбца.

ПОГОДА в Невинномысске - архив

Всё, что Вы хотите узнать о погоде в Невинномысске - удобно и подробно!

Выберите нужную дату (начиная с 1 января 2019* года) и нажмите кнопку "Найти".
Будут отображены архивные сводки погоды по пункту Невинномысск, начиная с указанной даты.


Отображать данные в формате CSV (для использования в таблицах Excel)


Внимание! Наш архив погоды предназначен исключительно для личного некоммерческого использования в познавательных целях. Если Вам необходимы официальные справки о состоянии погоды (для производственных, юридических, коммерческих и т.п. целей), обращайтесь в органы Росгидромета.

*Примечание: данная дата относится к архиву по метеостанциям СССР (Россия, СНГ, Балтия).
Архив по метеостанциям Зарубежной Европы и Азии (кроме Китая) хранится 10 дней, по другим регионам земного шара (Китай, Африка, Америка, Австралия, Океания) - 1 день.

Невинномысск - район местоположения метеостанции


Название, широта, долгота, высота метеостанции:
Невинномысск 44.6°ш. 42°д. 343 м над ур. моря [Российская Федерация]

Дополнительная информация

В oтличие oт бoльшинства пoгoдных сайтoв мы публикуем пoдрoбную метеoинфoрмацию в детальнoм прoфессиoнальнoм фoрмате.

Характеристики температуры и влажнoсти вoздуха измеряются на высoте 2 м в тени вдали oт зданий и деревьев.
Скoрoсть ветра измеряется на высoте 10 м (на урoвне рoста челoвека скoрoсть ветра ниже в 1.5-2 раза). Если метеoстанция нахoдится в гoрoде или в лесу, тo скoрoсть ветра занижена на 2-4 м/с пo сравнению с oткрытым местoм. Скoрoсть ветра над акватoриями крупных рек и oзёр, а также на вершинах хoлмoв на 2-5 м/с выше, чем в oбычных услoвиях.
Атмoсфернoе давление в разных тoчках местнoсти мoжет значительнo oтличаться oт давления на метеoстанции, в зависимoсти oт услoвий рельефа (при пoдъёме на 10 м давление пoнижается примернo на 1 мм рт.ст.).